• Em Portugal
  • Lista de países
  • Para 7 dias
  • Temperatura da água
  • Mapas de satélite
  • Mapa do tempo
  • Widgets de tempo
  • user-avatar
    Iniciar Sessão

    Previsão horária em Macapa

    Hoje, 22 Abril, Domingo

    Tempo Temperatura Precipitação Vento Pressão Humidade
    00:00 +26°C° 1,1 mm 2 m/s 758 mmHg 97%
    01:00 +26°C° 0,9 mm 2 m/s 758 mmHg 97%
    02:00 +25°C° 0,9 mm 1 m/s 758 mmHg 97%
    03:00 +25°C° 0 mm 1 m/s 758 mmHg 98%
    04:00 +25°C° 0,9 mm 1 m/s 758 mmHg 98%
    05:00 +25°C° 0,9 mm 1 m/s 758 mmHg 98%
    06:00 +25°C° 0,9 mm 1 m/s 758 mmHg 98%
    07:00 +25°C° 2,6 mm 1 m/s 758 mmHg 97%
    08:00 +26°C° 2,6 mm 1 m/s 759 mmHg 96%
    09:00 +24°C° 2,6 mm 0 m/s 759 mmHg 95%
    10:00 +24°C° 5,8 mm 0 m/s 759 mmHg 95%
    11:00 +26°C° 5,8 mm 1 m/s 759 mmHg 95%
    12:00 +26°C° 5,8 mm 1 m/s 759 mmHg 96%
    13:00 +26°C° 2,4 mm 1 m/s 759 mmHg 96%
    14:00 +24°C° 2,4 mm 0 m/s 758 mmHg 96%
    15:00 +24°C° 2,4 mm 0 m/s 758 mmHg 96%
    16:00 +24°C° 0,3 mm 0 m/s 757 mmHg 96%
    17:00 +24°C° 0,3 mm 0 m/s 757 mmHg 95%
    18:00 +24°C° 0,3 mm 0 m/s 757 mmHg 95%
    19:00 +24°C° 0 mm 0 m/s 757 mmHg 96%
    20:00 +23°C° 0 mm 0 m/s 758 mmHg 97%
    21:00 +25°C° 0 mm 1 m/s 758 mmHg 97%
    22:00 +25°C° 0,3 mm 1 m/s 758 mmHg 97%
    23:00 +25°C° 0,3 mm 1 m/s 759 mmHg 97%

    Amanhã, 23 Abril, Segunda-feira

    Tempo Temperatura Precipitação Vento Pressão Humidade
    00:00 +25°C° 0,3 mm 1 m/s 759 mmHg 97%
    01:00 +25°C° 3 mm 1 m/s 758 mmHg 97%
    02:00 +25°C° 3 mm 1 m/s 758 mmHg 98%
    03:00 +25°C° 3 mm 1 m/s 757 mmHg 98%
    04:00 +25°C° 4,6 mm 1 m/s 758 mmHg 98%
    05:00 +25°C° 4,6 mm 1 m/s 758 mmHg 98%
    06:00 +25°C° 4,6 mm 1 m/s 758 mmHg 98%
    07:00 +25°C° 1,3 mm 1 m/s 758 mmHg 98%
    08:00 +25°C° 1,3 mm 1 m/s 759 mmHg 97%
    09:00 +24°C° 1,3 mm 0 m/s 760 mmHg 97%
    10:00 +26°C° 0,7 mm 1 m/s 760 mmHg 94%
    11:00 +27°C° 0,7 mm 1 m/s 760 mmHg 90%
    12:00 +28°C° 0,7 mm 1 m/s 760 mmHg 87%
    13:00 +29°C° 0,2 mm 1 m/s 759 mmHg 86%
    14:00 +29°C° 0,2 mm 2 m/s 758 mmHg 85%
    15:00 +29°C° 0,2 mm 2 m/s 757 mmHg 84%
    16:00 +29°C° 0,2 mm 2 m/s 757 mmHg 86%
    17:00 +28°C° 0,2 mm 2 m/s 757 mmHg 88%
    18:00 +28°C° 0,2 mm 2 m/s 757 mmHg 90%
    19:00 +27°C° 0,3 mm 2 m/s 757 mmHg 92%
    20:00 +26°C° 0,3 mm 2 m/s 758 mmHg 95%
    21:00 +26°C° 0,3 mm 2 m/s 759 mmHg 97%
    22:00 +25°C° 0,5 mm 2 m/s 759 mmHg 97%
    23:00 +25°C° 0,6 mm 2 m/s 759 mmHg 97%

    Depois de amanhã, 24 Abril, Terça-feira

    Tempo Temperatura Precipitação Vento Pressão Humidade
    00:00 +25°C° 0,6 mm 1 m/s 759 mmHg 98%
    01:00 +25°C° 1,1 mm 1 m/s 759 mmHg 98%
    02:00 +25°C° 1,1 mm 1 m/s 758 mmHg 98%
    03:00 +25°C° 1,1 mm 1 m/s 758 mmHg 98%
    04:00 +25°C° 0,7 mm 1 m/s 758 mmHg 98%
    05:00 +23°C° 0,7 mm 0 m/s 758 mmHg 98%
    06:00 +23°C° 0,7 mm 0 m/s 758 mmHg 98%
    07:00 +23°C° 1,6 mm 0 m/s 759 mmHg 97%
    08:00 +24°C° 1,6 mm 0 m/s 759 mmHg 95%
    09:00 +24°C° 1,6 mm 0 m/s 760 mmHg 94%
    10:00 +27°C° 2,6 mm 1 m/s 760 mmHg 91%
    11:00 +28°C° 2,6 mm 1 m/s 760 mmHg 89%
    12:00 +28°C° 2,6 mm 2 m/s 760 mmHg 86%
    13:00 +28°C° 7,2 mm 2 m/s 759 mmHg 90%
    14:00 +27°C° 7,2 mm 2 m/s 758 mmHg 93%
    15:00 +26°C° 7,2 mm 2 m/s 758 mmHg 97%
    16:00 +26°C° 1 mm 2 m/s 757 mmHg 97%
    17:00 +26°C° 1 mm 2 m/s 757 mmHg 97%
    18:00 +26°C° 1 mm 1 m/s 757 mmHg 97%
    19:00 +25°C° 0 mm 1 m/s 758 mmHg 97%
    20:00 +25°C° 0 mm 2 m/s 758 mmHg 98%
    21:00 +25°C° 0 mm 2 m/s 759 mmHg 98%
    22:00 +25°C° 0 mm 2 m/s 759 mmHg 98%
    23:00 +25°C° 0 mm 2 m/s 759 mmHg 98%

    25 Abril, Quarta-feira

    Tempo Temperatura Precipitação Vento Pressão Humidade
    00:00 +25°C° 0 mm 2 m/s 759 mmHg 98%
    01:00 +25°C° 0,2 mm 2 m/s 759 mmHg 98%
    02:00 +25°C° 0,2 mm 2 m/s 758 mmHg 98%
    03:00 +25°C° 0,2 mm 1 m/s 758 mmHg 98%
    04:00 +25°C° 0,1 mm 1 m/s 758 mmHg 98%
    05:00 +25°C° 0,1 mm 1 m/s 758 mmHg 98%
    06:00 +25°C° 0,1 mm 1 m/s 759 mmHg 98%
    07:00 +26°C° 0 mm 1 m/s 759 mmHg 95%
    08:00 +27°C° 0 mm 1 m/s 760 mmHg 92%
    09:00 +28°C° 0 mm 1 m/s 760 mmHg 89%
    10:00 +29°C° 0,2 mm 1 m/s 760 mmHg 84%
    11:00 +30°C° 0,2 mm 1 m/s 760 mmHg 79%
    12:00 +31°C° 0,2 mm 2 m/s 760 mmHg 73%
    13:00 +31°C° 1,4 mm 2 m/s 759 mmHg 77%
    14:00 +31°C° 1,4 mm 2 m/s 758 mmHg 80%
    15:00 +30°C° 1,4 mm 3 m/s 757 mmHg 83%
    16:00 +29°C° 1,4 mm 3 m/s 757 mmHg 86%
    17:00 +28°C° 1,4 mm 2 m/s 757 mmHg 90%
    18:00 +28°C° 1,4 mm 2 m/s 757 mmHg 93%
    19:00 +27°C° 1,3 mm 2 m/s 758 mmHg 94%
    20:00 +26°C° 1,3 mm 2 m/s 758 mmHg 96%
    21:00 +26°C° 1,3 mm 2 m/s 759 mmHg 97%
    22:00 +26°C° 1,2 mm 2 m/s 759 mmHg 97%
    23:00 +26°C° 1,2 mm 2 m/s 759 mmHg 97%

    26 Abril, Quinta-feira

    Tempo Temperatura Precipitação Vento Pressão Humidade
    00:00 +26°C° 1,2 mm 2 m/s 759 mmHg 97%
    01:00 +25°C° 0,3 mm 2 m/s 759 mmHg 98%
    02:00 +25°C° 0,3 mm 1 m/s 758 mmHg 98%
    03:00 +25°C° 0,3 mm 1 m/s 757 mmHg 98%
    04:00 +25°C° 0,2 mm 1 m/s 758 mmHg 98%
    05:00 +25°C° 0,2 mm 1 m/s 758 mmHg 98%
    06:00 +23°C° 0,2 mm 0 m/s 758 mmHg 98%
    07:00 +26°C° 0,9 mm 1 m/s 759 mmHg 95%
    08:00 +27°C° 0,9 mm 1 m/s 759 mmHg 91%
    09:00 +29°C° 0,9 mm 1 m/s 760 mmHg 87%
    10:00 +29°C° 1,4 mm 2 m/s 759 mmHg 86%
    11:00 +30°C° 1,4 mm 2 m/s 759 mmHg 84%
    12:00 +30°C° 1,4 mm 2 m/s 759 mmHg 83%
    13:00 +30°C° 1,1 mm 2 m/s 758 mmHg 83%
    14:00 +30°C° 1,1 mm 2 m/s 757 mmHg 84%
    15:00 +30°C° 1,1 mm 3 m/s 756 mmHg 84%
    16:00 +29°C° 0,7 mm 2 m/s 757 mmHg 87%
    17:00 +28°C° 0,7 mm 2 m/s 757 mmHg 91%
    18:00 +27°C° 0,7 mm 2 m/s 757 mmHg 94%
    19:00 +27°C° 0,3 mm 2 m/s 757 mmHg 95%
    20:00 +26°C° 0,3 mm 2 m/s 758 mmHg 96%
    21:00 +26°C° 0,3 mm 2 m/s 758 mmHg 97%
    22:00 +26°C° 0,2 mm 2 m/s 758 mmHg 97%
    23:00 +25°C° 0,2 mm 2 m/s 758 mmHg 97%

    27 Abril, Sexta-feira

    Tempo Temperatura Precipitação Vento Pressão Humidade
    00:00 +25°C° 0,2 mm 2 m/s 758 mmHg 98%
    01:00 +25°C° 0,9 mm 1 m/s 758 mmHg 98%
    02:00 +25°C° 0,9 mm 1 m/s 757 mmHg 98%
    03:00 +25°C° 0,9 mm 1 m/s 757 mmHg 98%
    04:00 +25°C° 0,7 mm 1 m/s 757 mmHg 98%
    05:00 +25°C° 0,7 mm 1 m/s 757 mmHg 98%
    06:00 +25°C° 0,8 mm 1 m/s 758 mmHg 98%
    07:00 +26°C° 0,9 mm 1 m/s 758 mmHg 95%
    08:00 +27°C° 0,9 mm 2 m/s 758 mmHg 92%
    09:00 +28°C° 0,9 mm 2 m/s 759 mmHg 89%
    10:00 +29°C° 1,4 mm 2 m/s 759 mmHg 87%
    11:00 +29°C° 1,4 mm 2 m/s 758 mmHg 86%
    12:00 +30°C° 1,4 mm 3 m/s 758 mmHg 84%
    13:00 +30°C° 1,1 mm 3 m/s 757 mmHg 85%
    14:00 +30°C° 1,1 mm 3 m/s 757 mmHg 86%
    15:00 +30°C° 1,1 mm 3 m/s 756 mmHg 87%
    16:00 +29°C° 0,8 mm 3 m/s 756 mmHg 89%
    17:00 +28°C° 0,8 mm 3 m/s 756 mmHg 91%
    18:00 +28°C° 0,8 mm 3 m/s 756 mmHg 93%
    19:00 +27°C° 0 mm 3 m/s 757 mmHg 95%
    20:00 +27°C° 0 mm 3 m/s 757 mmHg 96%
    21:00 +26°C° 0 mm 3 m/s 758 mmHg 97%
    22:00 +26°C° 0 mm 2 m/s 758 mmHg 97%
    23:00 +26°C° 0 mm 2 m/s 758 mmHg 97%
    Mostrar mais